period_start,C,m1,H,J0,J1,J2,J3,J4,J5,JA,JB,JC,JD,JJ,JK,JN,#
2014-08-13 00:05:00,0.03,5.67,0.00,30.38,35.35,37.64,9.32,44.72,1006.29,1998.25,1680.71,2103.95,2190.84,500.19,479.89,35.82,0000 0000 0000 0000 000000
2014-08-13 00:10:01,0.06,5.67,0.00,30.21,35.32,37.57,9.26,44.79,1006.35,1998.35,1680.19,2103.82,2190.46,499.82,479.89,35.86,0000 0000 0000 0000 000000
2014-08-13 00:15:02,0.07,5.68,0.00,30.04,35.29,37.54,9.33,44.88,1006.31,1998.63,1680.03,2103.63,2190.25,500.09,480.30,35.90,0000 0000 0000 0000 000000
2014-08-13 00:20:04,0.03,5.68,0.00,29.90,35.24,37.52,9.29,44.98,1006.36,1998.94,1679.98,2103.73,2190.31,499.56,480.20,35.94,0000 0000 0000 0000 000000
2014-08-13 00:25:05,-0.01,5.68,0.00,29.82,35.19,37.37,9.24,44.49,1006.28,1998.99,1679.97,2103.75,2190.34,499.95,480.47,35.99,0000 0000 0000 0000 000000
2014-08-13 00:30:06,-0.01,5.68,0.00,29.72,35.14,37.30,9.32,44.86,1006.23,1999.03,1679.91,2103.89,2190.60,500.01,480.72,36.03,0000 0000 0000 0000 000000
2014-08-13 00:35:07,0.09,5.68,0.00,29.65,35.08,37.22,9.34,44.82,1006.07,1999.54,1679.60,2103.96,2190.83,499.78,480.62,36.07,0000 0000 0000 0000 000000
2014-08-13 00:40:09,0.08,5.68,0.00,29.59,35.02,37.14,9.28,45.23,1005.92,1999.91,1679.12,2103.92,2190.83,500.12,480.95,36.11,0000 0000 0000 0000 000000
2014-08-13 00:45:10,-0.00,5.69,0.00,29.51,34.95,37.03,9.38,45.48,1005.89,1999.99,1679.06,2103.96,2190.89,499.96,480.73,36.15,0000 0000 0000 0000 000000
2014-08-13 00:50:11,0.01,5.69,0.00,29.43,34.88,36.95,9.33,45.12,1005.88,2000.03,1679.01,2103.99,2190.97,500.23,481.19,36.19,0000 0000 0000 0000 000000
2014-08-13 00:55:12,0.05,5.69,0.00,29.39,34.82,36.89,9.38,45.37,1005.87,2000.29,1679.00,2103.98,2190.95,499.99,481.02,36.23,0000 0000 0000 0000 000000
2014-08-13 01:00:14,0.08,5.69,0.00,29.35,34.75,36.78,9.48,45.27,1005.87,2000.92,1678.99,2103.99,2190.98,500.18,481.38,36.28,0000 0000 0000 0000 000000
2014-08-13 01:05:15,0.00,5.69,0.00,29.30,34.68,36.72,9.42,45.30,1005.87,2000.99,1678.99,2103.99,2190.99,500.30,481.47,36.32,0000 0000 0000 0000 000000
2014-08-13 01:10:16,0.01,5.69,0.00,29.23,34.62,36.63,9.35,45.27,1005.87,2001.07,1678.99,2103.99,2190.99,500.11,481.43,36.36,0000 0000 0000 0000 000000
2014-08-13 01:15:17,0.07,5.69,0.00,29.20,34.56,36.59,9.35,45.27,1005.87,2001.43,1679.00,2104.01,2190.99,499.86,481.13,36.40,0000 0000 0000 0000 000000
2014-08-13 01:20:18,0.05,5.70,0.00,29.14,34.50,36.54,9.22,45.22,1005.87,2001.95,1678.98,2104.02,2190.99,499.44,481.07,36.44,0000 0000 0000 0000 000000
2014-08-13 01:25:19,-0.00,5.70,0.00,29.10,34.43,36.41,9.38,45.23,1005.90,2001.99,1678.99,2104.05,2190.99,500.21,481.88,36.48,0000 0000 0000 0000 000000
2014-08-13 01:30:20,0.01,5.70,0.00,29.06,34.37,36.33,9.41,45.29,1005.91,2002.07,1678.98,2104.17,2191.03,500.15,481.78,36.53,0000 0000 0000 0000 000000
2014-08-13 01:35:21,0.09,5.70,0.00,29.01,34.30,36.28,9.48,45.47,1005.95,2002.74,1678.97,2104.38,2191.08,500.09,481.71,36.57,0000 0000 0000 0000 000000
2014-08-13 01:40:22,0.01,5.70,0.00,28.95,34.24,36.21,9.38,45.33,1006.13,2002.97,1678.98,2104.51,2191.12,500.19,481.97,36.61,0000 0000 0000 0000 000000
2014-08-13 01:45:24,-0.01,5.70,0.00,28.94,34.18,36.14,9.34,45.48,1006.34,2003.01,1678.90,2104.76,2191.23,499.98,482.02,36.65,0000 0000 0000 0000 000000
2014-08-13 01:50:25,0.07,5.70,0.00,28.94,34.12,36.07,9.38,45.69,1006.35,2003.24,1678.69,2104.63,2191.15,500.05,481.97,36.69,0000 0000 0000 0000 000000
2014-08-13 01:55:26,0.13,5.71,0.00,28.92,34.07,36.03,9.33,45.78,1006.36,2003.87,1678.33,2104.45,2191.14,499.84,481.91,36.73,0000 0000 0000 0000 000000
2014-08-13 02:00:27,0.03,5.71,0.00,28.86,34.01,35.99,9.37,45.47,1006.36,2003.99,1678.03,2104.31,2191.06,499.70,481.78,36.78,0000 0000 0000 0000 000000
2014-08-13 02:05:28,-0.00,5.71,0.00,28.81,33.96,35.98,9.41,45.34,1006.36,2004.00,1678.00,2104.48,2191.09,500.08,482.20,36.82,0000 0000 0000 0000 000000
2014-08-13 02:10:29,0.06,5.71,0.00,28.77,33.90,35.95,9.37,45.34,1006.36,2004.22,1677.99,2104.20,2191.03,499.92,482.43,36.86,0000 0000 0000 0000 000000
2014-08-13 02:15:30,0.11,5.72,0.00,28.72,33.85,35.88,9.35,45.37,1006.36,2004.83,1677.90,2104.18,2191.03,499.64,481.97,36.90,0000 0000 0000 0000 000000
2014-08-13 02:20:31,-0.01,5.72,0.00,28.68,33.80,35.82,9.32,45.27,1006.36,2004.99,1677.90,2104.32,2191.03,500.13,482.49,36.94,0000 0000 0000 0000 000000
2014-08-13 02:25:32,0.07,5.72,0.00,28.60,33.75,35.79,9.37,45.37,1006.38,2005.01,1677.43,2104.20,2191.01,500.23,482.60,36.98,0000 0000 0000 0000 000000
2014-08-13 02:30:34,0.07,5.72,0.00,28.53,33.70,35.74,9.40,45.31,1006.39,2005.34,1677.02,2104.00,2190.98,500.12,482.90,37.02,0000 0000 0000 0000 000000
2014-08-13 02:35:35,0.07,5.73,0.00,28.51,33.65,35.69,9.46,45.33,1006.39,2005.91,1677.01,2104.00,2190.99,500.32,483.04,37.07,0000 0000 0000 0000 000000
2014-08-13 02:40:36,0.00,5.73,0.00,28.48,33.60,35.64,9.49,45.22,1006.39,2005.99,1677.00,2104.00,2190.98,499.63,482.41,37.11,0000 0000 0000 0000 000000
2014-08-13 02:45:37,0.01,5.73,0.00,28.45,33.54,35.58,9.49,45.24,1006.43,2006.02,1676.96,2104.00,2190.99,500.39,483.20,37.15,0000 0000 0000 0000 000000
2014-08-13 02:50:39,0.06,5.73,0.00,28.39,33.49,35.57,9.38,45.23,1006.49,2006.34,1676.93,2104.00,2190.99,500.18,483.09,37.19,0000 0000 0000 0000 000000
2014-08-13 02:55:40,0.10,5.73,0.00,28.35,33.44,35.49,9.37,45.19,1006.61,2006.87,1676.60,2104.00,2190.99,500.05,483.11,37.23,0000 0000 0000 0000 000000
2014-08-13 03:00:41,0.02,5.74,0.00,28.30,33.39,35.45,9.44,45.13,1006.64,2006.99,1676.21,2104.00,2190.98,500.14,483.37,37.27,0000 0000 0000 0000 000000
2014-08-13 03:05:43,0.01,5.74,0.00,28.26,33.34,35.41,9.33,45.13,1006.77,2007.01,1676.06,2103.98,2190.96,499.56,483.14,37.32,0000 0000 0000 0000 000000
2014-08-13 03:10:44,0.02,5.74,0.00,28.21,33.29,35.39,9.43,45.23,1006.82,2007.17,1676.01,2103.99,2190.96,500.35,483.59,37.36,0000 0000 0000 0000 000000
2014-08-13 03:15:45,0.10,5.74,0.00,28.16,33.24,35.30,9.45,45.23,1006.84,2007.76,1676.00,2103.99,2190.95,500.38,483.86,37.40,0000 0000 0000 0000 000000
2014-08-13 03:20:46,0.02,5.74,0.00,28.13,33.20,35.26,9.28,45.08,1006.82,2007.97,1676.00,2103.99,2190.99,499.67,483.21,37.44,0000 0000 0000 0000 000000
2014-08-13 03:25:47,0.00,5.74,0.00,28.09,33.15,35.22,9.42,45.22,1006.84,2007.99,1676.00,2103.99,2190.99,500.29,483.80,37.48,0000 0000 0000 0000 000000
2014-08-13 03:30:48,0.00,5.74,0.00,28.04,33.10,35.17,9.47,45.39,1006.85,2008.01,1675.99,2103.99,2190.99,500.33,483.93,37.52,0000 0000 0000 0000 000000
2014-08-13 03:35:49,0.12,5.74,0.00,28.03,33.05,35.12,9.43,45.20,1006.85,2008.60,1675.98,2104.00,2190.99,499.97,483.71,37.56,0000 0000 0000 0000 000000
2014-08-13 03:40:50,0.03,5.75,0.00,28.00,33.00,35.09,9.42,45.04,1006.86,2008.98,1675.97,2104.02,2190.99,500.25,484.01,37.61,0000 0000 0000 0000 000000
2014-08-13 03:45:52,-0.00,5.75,0.00,27.97,32.96,35.02,9.43,44.99,1006.88,2008.99,1675.96,2104.00,2191.00,500.35,483.76,37.65,0000 0000 0000 0000 000000
2014-08-13 03:50:53,0.00,5.75,0.00,27.95,32.92,35.02,9.45,45.13,1007.14,2009.00,1675.94,2104.01,2191.00,500.28,484.34,37.69,0000 0000 0000 0000 000000
2014-08-13 03:55:54,0.03,5.75,0.00,27.92,32.88,35.00,9.42,44.95,1007.32,2009.14,1675.86,2104.00,2191.00,500.20,484.26,37.73,0000 0000 0000 0000 000000
2014-08-13 04:00:55,0.11,5.75,0.00,27.87,32.84,34.95,9.38,44.95,1007.34,2009.52,1675.52,2104.00,2190.99,500.03,484.24,37.77,0000 0000 0000 0000 000000
2014-08-13 04:05:56,0.05,5.76,0.00,27.86,32.80,34.89,9.40,44.99,1007.35,2009.95,1675.08,2103.99,2190.93,499.99,484.18,37.81,0000 0000 0000 0000 000000
2014-08-13 04:10:57,0.04,5.76,0.00,27.84,32.75,34.86,9.36,45.00,1007.40,2009.99,1675.00,2103.84,2190.30,499.88,484.14,37.85,0000 0000 0000 0000 000000
2014-08-13 04:15:58,0.04,5.76,0.00,27.80,32.71,34.84,9.39,45.01,1007.46,2009.99,1674.98,2103.28,2190.02,499.69,483.95,37.90,0000 0000 0000 0000 000000
2014-08-13 04:20:59,0.03,5.76,0.00,27.76,32.67,34.80,9.38,45.13,1007.62,2010.04,1674.86,2103.01,2190.00,499.87,484.38,37.94,0000 0000 0000 0000 000000
2014-08-13 04:26:01,0.12,5.77,0.00,27.72,32.63,34.80,9.40,45.10,1007.78,2010.41,1674.34,2103.00,2189.97,499.86,484.51,37.98,0000 0000 0000 0000 000000
2014-08-13 04:31:02,0.08,5.77,0.00,27.67,32.59,34.74,9.38,44.94,1007.78,2010.94,1674.02,2102.95,2189.50,499.89,484.79,38.02,0000 0000 0000 0000 000000
2014-08-13 04:36:03,0.06,5.77,0.00,27.64,32.55,34.69,9.46,45.03,1007.76,2010.99,1673.97,2102.44,2189.03,499.99,484.60,38.06,0000 0000 0000 0000 000000
2014-08-13 04:41:05,0.05,5.77,0.00,27.59,32.51,34.67,9.42,45.06,1007.82,2011.00,1673.46,2102.03,2188.98,499.90,484.85,38.10,0000 0000 0000 0000 000000
2014-08-13 04:46:05,0.06,5.78,0.00,27.54,32.47,34.63,9.42,44.91,1007.84,2011.12,1673.02,2101.98,2188.49,500.26,485.19,38.15,0000 0000 0000 0000 000000
2014-08-13 04:51:07,0.14,5.78,0.00,27.48,32.43,34.56,9.43,44.99,1007.89,2011.58,1672.95,2101.43,2188.05,500.05,485.06,38.19,0000 0000 0000 0000 000000
2014-08-13 04:56:08,0.09,5.79,0.00,27.41,32.38,34.55,9.42,45.01,1008.00,2011.92,1672.44,2101.03,2187.98,499.87,485.26,38.23,0000 0000 0000 0000 000000
2014-08-13 05:01:09,0.03,5.79,0.00,27.35,32.34,34.47,9.49,44.91,1008.17,2011.99,1672.02,2101.00,2187.52,500.39,485.59,38.27,0000 0000 0000 0000 000000
2014-08-13 05:06:10,0.01,5.79,0.00,27.29,32.29,34.45,9.46,45.03,1008.25,2011.99,1672.00,2100.95,2187.08,500.17,485.72,38.31,0000 0000 0000 0000 000000
2014-08-13 05:11:11,0.04,5.79,0.00,27.24,32.25,34.37,9.47,45.09,1008.17,2012.03,1671.99,2100.53,2187.00,500.23,485.91,38.35,0000 0000 0000 0000 000000
2014-08-13 05:16:12,0.10,5.80,0.00,27.17,32.20,34.33,9.44,45.00,1007.93,2012.41,1671.93,2100.14,2187.00,500.35,486.00,38.39,0000 0000 0000 0000 000000
2014-08-13 05:21:14,0.07,5.80,0.00,27.14,32.16,34.26,9.41,44.89,1007.88,2012.88,1671.69,2100.01,2186.97,499.83,485.65,38.44,0000 0000 0000 0000 000000
2014-08-13 05:26:15,0.04,5.80,0.00,27.08,32.11,34.23,9.49,44.92,1007.92,2012.98,1671.19,2100.00,2186.79,499.92,485.59,38.48,0000 0000 0000 0000 000000
2014-08-13 05:31:16,0.02,5.80,0.00,27.03,32.06,34.20,9.41,45.08,1008.13,2012.99,1671.00,2100.00,2186.27,499.93,485.87,38.52,0000 0000 0000 0000 000000
2014-08-13 05:36:17,0.04,5.80,0.00,27.02,32.02,34.14,9.41,45.10,1008.31,2013.16,1671.00,2099.97,2186.04,500.02,485.99,38.56,0000 0000 0000 0000 000000
2014-08-13 05:41:18,0.09,5.81,0.00,27.04,31.97,34.11,9.50,45.09,1008.32,2013.55,1671.00,2099.67,2186.00,500.19,486.07,38.60,0000 0000 0000 0000 000000
2014-08-13 05:46:19,0.07,5.81,0.00,27.10,31.93,34.11,9.44,45.06,1008.33,2013.92,1670.98,2099.17,2186.00,499.74,485.55,38.64,0000 0000 0000 0000 000000
2014-08-13 05:51:21,0.02,5.81,0.00,27.16,31.90,34.07,9.44,44.91,1008.36,2013.98,1670.88,2099.02,2185.89,500.30,486.17,38.69,0000 0000 0000 0000 000000
2014-08-13 05:56:22,0.04,5.81,0.00,27.19,31.86,34.01,9.43,45.25,1008.47,2013.99,1670.64,2099.00,2185.32,499.97,485.84,38.73,0000 0000 0000 0000 000000
2014-08-13 06:01:23,0.02,5.82,0.00,27.26,31.83,33.96,9.42,45.21,1008.78,2014.00,1670.30,2099.00,2185.04,500.01,485.85,38.77,0000 0000 0000 0000 000000
2014-08-13 06:06:24,0.06,5.82,0.00,27.34,31.81,33.93,9.37,45.02,1008.80,2014.12,1670.16,2098.81,2185.00,500.00,485.68,38.81,0000 0000 0000 0000 000000
2014-08-13 06:11:25,0.05,5.82,0.00,27.40,31.80,33.90,9.36,45.02,1008.80,2014.21,1670.04,2098.16,2184.96,499.55,485.17,38.85,0000 0000 0000 0000 000000
2014-08-13 06:16:27,0.07,5.82,0.00,27.45,31.78,33.91,9.41,45.02,1008.78,2014.46,1670.00,2098.01,2184.57,499.93,485.50,38.89,0000 0000 0000 0000 000000
2014-08-13 06:21:28,0.02,5.82,0.00,27.48,31.77,33.92,9.44,45.01,1008.38,2014.57,1670.00,2098.00,2184.06,499.82,485.23,38.93,0000 0000 0000 0000 000000
2014-08-13 06:26:29,0.06,5.83,0.00,27.51,31.77,33.92,9.47,44.88,1008.43,2014.89,1669.98,2097.89,2184.01,500.23,485.44,38.98,0000 0000 0000 0000 000000
2014-08-13 06:31:30,0.04,5.83,0.00,27.53,31.77,33.92,9.49,44.95,1008.74,2014.92,1669.92,2097.36,2183.99,500.24,485.70,39.02,0000 0000 0000 0000 000000
2014-08-13 06:36:32,0.05,5.83,0.00,27.57,31.77,33.92,9.41,44.84,1008.82,2014.97,1669.45,2097.03,2183.79,499.65,485.02,39.06,0000 0000 0000 0000 000000
2014-08-13 06:41:33,0.01,5.83,0.00,27.60,31.77,33.93,9.46,44.83,1008.91,2014.97,1669.42,2097.00,2183.18,500.16,485.67,39.10,0000 0000 0000 0000 000000
2014-08-13 06:46:34,0.00,5.83,0.00,27.65,31.77,33.95,9.39,44.90,1009.16,2014.98,1669.49,2096.99,2183.01,500.01,485.33,39.14,0000 0000 0000 0000 000000
2014-08-13 06:51:35,0.03,5.83,0.00,27.69,31.77,33.95,9.34,44.63,1009.20,2014.98,1669.26,2096.84,2183.00,499.78,485.20,39.18,0000 0000 0000 0000 000000
2014-08-13 06:56:36,0.05,5.84,0.00,27.70,31.78,33.97,9.40,44.56,1009.08,2014.98,1669.04,2096.25,2182.97,499.88,485.19,39.22,0000 0000 0000 0000 000000
2014-08-13 07:01:37,0.02,5.84,0.00,27.72,31.80,33.98,9.46,44.80,1009.16,2014.99,1669.01,2096.02,2182.66,499.88,485.21,39.27,0000 0000 0000 0000 000000
2014-08-13 07:06:38,0.01,5.84,0.00,27.74,31.80,34.00,9.42,44.66,1009.24,2014.98,1669.00,2096.00,2182.09,499.79,485.06,39.31,0000 0000 0000 0000 000000
2014-08-13 07:11:40,-0.00,5.84,0.00,27.76,31.82,34.02,9.41,44.76,1009.28,2014.97,1669.00,2095.98,2182.00,500.10,485.24,39.35,0000 0000 0000 0000 000000
2014-08-13 07:16:41,0.03,5.84,0.00,27.80,31.82,34.04,9.38,44.89,1009.29,2014.96,1669.00,2095.63,2181.99,499.83,485.09,39.39,0000 0000 0000 0000 000000
2014-08-13 07:21:42,0.02,5.84,0.00,27.86,31.85,34.04,9.39,44.67,1009.30,2014.82,1668.96,2095.04,2181.42,499.98,485.17,39.43,0000 0000 0000 0000 000000
2014-08-13 07:26:43,0.02,5.84,0.00,27.87,31.86,34.07,9.41,44.73,1009.32,2014.73,1668.86,2094.99,2181.05,500.09,485.32,39.47,0000 0000 0000 0000 000000
2014-08-13 07:31:44,0.02,5.84,0.00,27.90,31.87,34.09,9.29,44.62,1009.56,2014.62,1668.57,2094.96,2181.00,500.24,485.29,39.52,0000 0000 0000 0000 000000
2014-08-13 07:36:45,-0.00,5.84,0.00,27.94,31.90,34.10,9.31,44.60,1009.74,2014.44,1668.47,2094.41,2180.88,499.84,485.09,39.56,0000 0000 0000 0000 000000
2014-08-13 07:41:46,0.02,5.84,0.00,27.99,31.91,34.12,9.36,44.73,1009.78,2014.12,1668.04,2094.01,2180.23,500.20,485.32,39.60,0000 0000 0000 0000 000000
2014-08-13 07:46:47,0.00,5.84,0.00,28.01,31.93,34.14,9.33,44.49,1009.78,2014.14,1668.01,2093.99,2180.01,500.16,484.97,39.64,0000 0000 0000 0000 000000
2014-08-13 07:51:49,0.01,5.84,0.00,28.03,31.95,34.17,9.45,44.67,1009.78,2014.06,1668.01,2093.80,2179.96,500.11,485.20,39.68,0000 0000 0000 0000 000000
2014-08-13 07:56:50,0.06,5.85,0.00,28.06,31.97,34.19,9.41,44.68,1009.78,2014.00,1668.00,2093.13,2179.51,500.24,485.27,39.72,0000 0000 0000 0000 000000
2014-08-13 08:01:51,0.01,5.85,0.00,28.09,32.00,34.22,9.34,44.58,1009.80,2014.00,1668.00,2093.00,2179.03,500.00,484.98,39.76,0000 0000 0000 0000 000000
2014-08-13 08:06:52,0.00,5.85,0.00,28.11,32.02,34.24,9.32,44.67,1009.79,2014.00,1667.97,2092.95,2178.99,499.85,484.87,39.81,0000 0000 0000 0000 000000
2014-08-13 08:11:54,0.03,5.85,0.00,28.14,32.04,34.26,9.45,44.63,1009.81,2013.99,1667.92,2092.60,2178.85,500.06,485.28,39.85,0000 0000 0000 0000 000000
2014-08-13 08:16:55,0.07,5.85,0.00,28.17,32.06,34.28,9.41,44.73,1010.04,2013.98,1667.66,2092.05,2178.21,500.05,485.11,39.89,0000 0000 0000 0000 000000
2014-08-13 08:21:56,0.01,5.85,0.00,28.22,32.09,34.30,9.31,44.52,1010.25,2013.92,1667.15,2092.00,2178.00,499.92,484.88,39.93,0000 0000 0000 0000 000000
2014-08-13 08:26:58,-0.03,5.85,0.00,28.25,32.11,34.33,9.40,44.52,1010.27,2013.62,1667.03,2091.81,2177.93,500.04,484.96,39.97,0000 0000 0000 0000 000000
2014-08-13 08:31:59,0.02,5.85,0.00,28.31,32.14,34.35,9.32,44.42,1010.27,2013.26,1667.00,2091.13,2177.23,500.08,484.95,40.01,0000 0000 0000 0000 000000
2014-08-13 08:37:00,-0.01,5.85,0.00,28.34,32.17,34.38,9.32,44.34,1010.31,2013.10,1666.99,2091.00,2177.00,499.85,484.74,40.05,0000 0000 0000 0000 000000
2014-08-13 08:42:01,0.00,5.85,0.00,28.35,32.20,34.40,9.42,44.45,1010.44,2013.02,1666.98,2090.93,2176.98,499.87,484.79,40.10,0000 0000 0000 0000 000000
2014-08-13 08:47:02,0.06,5.85,0.00,28.35,32.22,34.44,9.45,44.50,1010.64,2013.01,1666.94,2090.46,2176.62,499.99,484.97,40.14,0000 0000 0000 0000 000000
2014-08-13 08:52:03,0.04,5.86,0.00,28.35,32.25,34.47,9.43,44.40,1010.75,2013.00,1666.80,2090.03,2176.05,499.88,484.91,40.18,0000 0000 0000 0000 000000
2014-08-13 08:57:04,0.02,5.86,0.00,28.36,32.27,34.51,9.33,44.42,1010.76,2013.00,1666.44,2090.00,2176.00,499.63,484.76,40.22,0000 0000 0000 0000 000000
2014-08-13 09:02:06,0.03,5.86,0.00,28.34,32.30,34.53,9.34,44.45,1010.76,2012.98,1666.13,2089.82,2175.81,499.95,485.05,40.26,0000 0000 0000 0000 000000
2014-08-13 09:07:07,0.05,5.86,0.00,28.37,32.32,34.56,9.31,44.29,1010.77,2012.87,1666.01,2089.16,2175.13,499.64,484.94,40.30,0000 0000 0000 0000 000000
2014-08-13 09:12:09,-0.01,5.86,0.00,28.37,32.35,34.58,9.28,44.39,1010.77,2012.72,1666.01,2089.01,2175.01,499.92,485.06,40.35,0000 0000 0000 0000 000000
2014-08-13 09:17:10,-0.03,5.86,0.00,28.35,32.37,34.61,9.39,44.57,1010.78,2012.60,1666.00,2089.00,2175.00,500.05,485.13,40.39,0000 0000 0000 0000 000000
2014-08-13 09:22:11,-0.04,5.86,0.00,28.35,32.39,34.63,9.34,44.29,1010.80,2012.21,1665.99,2088.96,2174.98,500.05,485.09,40.43,0000 0000 0000 0000 000000
2014-08-13 09:27:12,0.03,5.86,0.00,28.35,32.41,34.64,9.32,44.25,1010.85,2012.11,1665.91,2088.57,2174.69,499.79,484.93,40.47,0000 0000 0000 0000 000000
2014-08-13 09:32:13,0.05,5.86,0.00,28.34,32.42,34.66,9.37,44.34,1011.06,2012.03,1665.56,2088.05,2174.10,499.83,485.13,40.51,0000 0000 0000 0000 000000
2014-08-13 09:37:14,0.02,5.86,0.00,28.35,32.44,34.67,9.41,44.27,1011.17,2012.00,1665.10,2088.00,2174.00,500.10,485.25,40.55,0000 0000 0000 0000 000000
2014-08-13 09:42:15,0.00,5.86,0.00,28.35,32.46,34.70,9.45,44.27,1011.24,2012.00,1665.05,2087.96,2173.98,500.30,485.59,40.60,0000 0000 0000 0000 000000
2014-08-13 09:47:16,0.02,5.86,0.00,28.37,32.47,34.72,9.39,44.33,1011.24,2012.00,1665.02,2087.78,2173.85,500.15,485.37,40.64,0000 0000 0000 0000 000000
2014-08-13 09:52:17,0.06,5.87,0.00,28.35,32.49,34.72,9.36,44.25,1011.26,2012.00,1665.01,2087.18,2173.20,500.06,485.38,40.68,0000 0000 0000 0000 000000
2014-08-13 09:57:19,0.00,5.87,0.00,28.38,32.50,34.73,9.35,44.25,1011.34,2012.00,1665.00,2087.00,2173.01,499.94,485.21,40.72,0000 0000 0000 0000 000000
2014-08-13 10:02:20,-0.00,5.87,0.00,28.36,32.52,34.75,9.32,44.33,1011.62,2011.98,1665.00,2087.00,2173.00,499.92,485.39,40.76,0000 0000 0000 0000 000000
2014-08-13 10:07:22,0.00,5.87,0.00,28.35,32.53,34.78,9.40,44.33,1011.73,2011.97,1664.96,2086.92,2172.96,500.13,485.75,40.80,0000 0000 0000 0000 000000
2014-08-13 10:12:23,0.09,5.87,0.00,28.35,32.55,34.77,9.40,44.28,1011.74,2011.98,1664.41,2086.49,2172.69,500.16,485.77,40.84,0000 0000 0000 0000 000000
2014-08-13 10:17:24,0.05,5.87,0.00,28.37,32.55,34.80,9.37,44.21,1011.78,2011.98,1664.07,2086.03,2172.10,500.16,485.71,40.89,0000 0000 0000 0000 000000
2014-08-13 10:22:25,-0.01,5.87,0.00,28.37,32.57,34.81,9.37,44.13,1011.88,2011.92,1664.01,2086.00,2172.00,499.63,485.21,40.93,0000 0000 0000 0000 000000
2014-08-13 10:27:26,0.00,5.87,0.00,28.38,32.57,34.82,9.46,44.08,1012.07,2011.94,1664.01,2085.96,2171.99,500.40,486.05,40.97,0000 0000 0000 0000 000000
2014-08-13 10:32:27,0.01,5.87,0.00,28.38,32.60,34.83,9.40,43.96,1012.20,2011.90,1664.00,2085.81,2171.96,499.80,485.55,41.01,0000 0000 0000 0000 000000
2014-08-13 10:37:29,0.04,5.87,0.00,28.36,32.60,34.83,9.39,44.09,1012.22,2011.90,1664.00,2085.39,2171.72,500.53,486.14,41.05,0000 0000 0000 0000 000000
2014-08-13 10:42:30,0.02,5.88,0.00,28.37,32.60,34.85,9.45,43.99,1012.22,2011.84,1664.00,2085.07,2171.16,500.18,485.71,41.09,0000 0000 0000 0000 000000
2014-08-13 10:47:31,-0.01,5.88,0.00,28.38,32.62,34.85,9.36,43.90,1012.23,2011.78,1664.00,2085.01,2171.04,499.79,485.58,41.14,0000 0000 0000 0000 000000
2014-08-13 10:52:32,-0.08,5.87,0.00,28.37,32.62,34.87,9.40,44.00,1012.24,2011.37,1664.00,2085.00,2171.00,499.96,485.63,41.18,0000 0000 0000 0000 000000
2014-08-13 10:57:33,-0.01,5.87,0.00,28.37,32.63,34.87,9.41,44.02,1012.26,2011.22,1664.01,2084.99,2171.00,499.82,485.47,41.22,0000 0000 0000 0000 000000
2014-08-13 11:02:34,-0.00,5.87,0.00,28.35,32.64,34.88,9.43,44.17,1012.47,2011.16,1664.04,2084.98,2170.99,500.29,486.12,41.26,0000 0000 0000 0000 000000
2014-08-13 11:07:35,-0.01,5.87,0.00,28.36,32.65,34.88,9.37,44.24,1012.66,2011.09,1664.05,2084.95,2170.97,499.68,485.65,41.30,0000 0000 0000 0000 000000
2014-08-13 11:12:36,0.00,5.87,0.00,28.35,32.65,34.89,9.44,44.10,1012.71,2011.09,1664.04,2084.91,2170.95,500.25,486.28,41.34,0000 0000 0000 0000 000000
2014-08-13 11:17:38,0.01,5.87,0.00,28.36,32.65,34.89,9.39,44.03,1012.72,2011.05,1664.04,2084.72,2170.88,499.85,485.94,41.38,0000 0000 0000 0000 000000
2014-08-13 11:22:39,0.05,5.87,0.00,28.36,32.65,34.90,9.41,44.01,1012.72,2011.01,1664.02,2084.21,2170.45,500.19,486.09,41.43,0000 0000 0000 0000 000000
2014-08-13 11:27:40,0.00,5.87,0.00,28.35,32.66,34.90,9.40,44.04,1012.77,2011.04,1664.01,2084.12,2170.33,500.13,485.89,41.47,0000 0000 0000 0000 000000
2014-08-13 11:32:41,0.01,5.87,0.00,28.33,32.67,34.90,9.40,44.08,1012.95,2011.03,1664.01,2084.07,2170.21,499.68,486.00,41.51,0000 0000 0000 0000 000000
2014-08-13 11:37:43,0.00,5.87,0.00,28.32,32.67,34.91,9.42,44.08,1013.19,2011.04,1664.02,2084.04,2170.12,499.90,486.22,41.55,0000 0000 0000 0000 000000
2014-08-13 11:42:44,-0.00,5.87,0.00,28.31,32.67,34.91,9.37,43.99,1013.20,2011.03,1664.01,2084.01,2170.06,499.77,486.08,41.59,0000 0000 0000 0000 000000
2014-08-13 11:47:45,-0.00,5.87,0.00,28.31,32.67,34.91,9.40,44.09,1013.20,2011.02,1664.04,2084.00,2170.01,499.56,485.94,41.63,0000 0000 0000 0000 000000
2014-08-13 11:52:46,0.00,5.87,0.00,28.29,32.67,34.91,9.47,44.07,1013.20,2011.03,1664.03,2084.00,2170.00,500.18,486.51,41.67,0000 0000 0000 0000 000000
2014-08-13 11:57:47,-0.00,5.87,0.00,28.28,32.67,34.91,9.44,44.06,1013.20,2011.01,1664.05,2084.00,2170.00,499.89,486.22,41.72,0000 0000 0000 0000 000000
2014-08-13 12:02:49,-0.00,5.87,0.00,28.27,32.67,34.91,9.32,43.99,1013.22,2011.01,1664.06,2083.98,2170.00,499.59,485.84,41.76,0000 0000 0000 0000 000000
2014-08-13 12:07:50,0.00,5.87,0.00,28.29,32.67,34.90,9.46,44.06,1013.26,2011.04,1664.14,2083.97,2170.00,500.43,486.67,41.80,0000 0000 0000 0000 000000
2014-08-13 12:12:50,0.00,5.87,0.00,28.27,32.67,34.92,9.49,44.11,1013.33,2011.02,1664.16,2083.92,2169.99,500.56,486.82,41.84,0000 0000 0000 0000 000000
2014-08-13 12:17:51,0.01,5.87,0.00,28.25,32.67,34.91,9.38,44.11,1013.30,2011.02,1664.13,2083.73,2169.96,499.90,486.13,41.88,0000 0000 0000 0000 000000
2014-08-13 12:22:52,0.04,5.88,0.00,28.26,32.67,34.90,9.33,43.99,1013.53,2011.01,1664.08,2083.27,2169.69,499.84,486.48,41.92,0000 0000 0000 0000 000000
2014-08-13 12:27:54,0.02,5.88,0.00,28.25,32.67,34.90,9.41,43.98,1013.50,2011.00,1664.09,2083.02,2169.31,499.58,486.02,41.97,0000 0000 0000 0000 000000
2014-08-13 12:32:55,-0.00,5.88,0.00,28.27,32.66,34.89,9.40,44.08,1013.55,2011.01,1664.14,2083.05,2169.28,499.80,486.35,42.01,0000 0000 0000 0000 000000
2014-08-13 12:37:56,0.00,5.88,0.00,28.24,32.65,34.90,9.44,43.98,1013.69,2011.03,1664.26,2083.01,2169.26,500.14,486.83,42.05,0000 0000 0000 0000 000000
2014-08-13 12:42:58,0.01,5.88,0.00,28.23,32.65,34.89,9.42,43.98,1013.69,2011.03,1664.24,2083.03,2169.18,499.84,486.87,42.09,0000 0000 0000 0000 000000
2014-08-13 12:47:59,0.01,5.88,0.00,28.22,32.65,34.88,9.41,44.08,1013.69,2011.01,1664.10,2083.00,2169.04,499.97,486.77,42.13,0000 0000 0000 0000 000000
2014-08-13 12:53:00,-0.01,5.88,0.00,28.20,32.65,34.88,9.32,43.96,1013.69,2011.02,1664.23,2083.00,2169.03,499.92,486.64,42.17,0000 0000 0000 0000 000000
2014-08-13 12:58:01,0.00,5.88,0.00,28.18,32.65,34.88,9.38,44.11,1013.69,2011.07,1664.37,2083.00,2169.03,499.83,486.71,42.21,0000 0000 0000 0000 000000
2014-08-13 13:03:02,-0.01,5.88,0.00,28.15,32.65,34.88,9.42,44.04,1013.69,2011.03,1664.39,2083.00,2169.01,499.84,486.62,42.26,0000 0000 0000 0000 000000